Weather History for KMKC - February, 2013

Change the Weather History Date:

Thursday, February 21, 2013

  Actual Average Record
Temperature  
Mean Temperature 24 °F -  
Max Temperature 26 °F 44 °F 66 °F (2000)
Min Temperature 21 °F 28 °F 15 °F (2008)
Degree Days  
Heating Degree Days 42    
Moisture  
Dew Point 20 °F    
Average Humidity 82    
Maximum Humidity 93    
Minimum Humidity 63    
Precipitation  
Precipitation 0.43 in - - ()
Sea Level Pressure  
Sea Level Pressure 29.89 in    
Wind  
Wind Speed 13 mph (ENE)    
Max Wind Speed 26 mph    
Max Gust Speed 33 mph    
Visibility 3 miles    
Events Fog , Rain , Snow , Thunderstorm    
Averages and records for this station are not official NWS values.
T = Trace of Precipitation, MM = Missing Value Source: NWS Daily Summary

Daily Weather History Graph

Daily Weather History Graph

Search for Another Location

Airport or City:

Trip Planner

Search our weather history database for the weather conditions in past years. The results will help you decide how hot, cold, wet, or windy it might be!

Date:

Astronomy

Feb. 21, 2013 Rise Set
Actual Time 7:01 AM CST 6:02 PM CST
Civil Twilight 6:34 AM CST 6:29 PM CST
Nautical Twilight 6:03 AM CST 7:00 PM CST
Astronomical Twilight 5:32 AM CST 7:31 PM CST
Moon 2:19 PM CST (2/21) 4:05 AM CST (2/21)
Length of Visible Light 11h 54m
Length of Day
11h 00m
Waxing Gibbous, 84% of the Moon is Illuminated
Feb 21
Waxing Gibbous
Feb 25
Full
Mar 4
Last Quarter
Mar 11
New
Mar 19
First Quarter

Hourly Weather History & Observations

Time (CST) Temp. Windchill Dew Point Humidity Pressure Visibility Wind Dir Wind Speed Gust Speed Precip Events Conditions
1:54 AM 23.0 °F 10.1 °F 12.9 °F 65% 30.20 in 10.0 mi ENE 15.0 mph 24.2 mph N/A   Overcast
2:54 AM 23.0 °F 11.7 °F 12.0 °F 63% 30.16 in 10.0 mi East 11.5 mph 20.7 mph N/A   Overcast
3:54 AM 23.0 °F 10.1 °F 12.0 °F 63% 30.15 in 10.0 mi East 15.0 mph - N/A   Overcast
4:54 AM 23.0 °F 8.7 °F 12.9 °F 65% 30.12 in 10.0 mi East 18.4 mph 23.0 mph N/A   Overcast
5:54 AM 23.0 °F 9.6 °F 12.9 °F 65% 30.10 in 10.0 mi East 16.1 mph 23.0 mph N/A   Overcast
6:54 AM 23.0 °F 9.6 °F 14.0 °F 68% 30.06 in 3.0 mi East 16.1 mph 21.9 mph 0.00 in Snow Light Snow
7:01 AM 23.0 °F 12.4 °F 15.8 °F 74% 30.04 in 2.0 mi ENE 10.4 mph - N/A Snow Light Snow
7:07 AM 23.0 °F 11.7 °F 15.8 °F 74% 30.03 in 1.5 mi East 11.5 mph - 0.00 in Snow Light Snow
7:27 AM 23.0 °F 11.1 °F 17.6 °F 80% 30.02 in 0.5 mi ENE 12.7 mph - 0.00 in Snow Snow
7:34 AM 21.2 °F 9.5 °F 17.6 °F 86% 30.04 in 0.5 mi East 11.5 mph 20.7 mph 0.01 in Fog , Snow Snow
7:44 AM 21.2 °F 8.3 °F 17.6 °F 86% 30.04 in 0.2 mi East 13.8 mph 20.7 mph 0.02 in Fog , Snow Heavy Snow
7:54 AM 21.9 °F 9.8 °F 18.0 °F 85% 30.08 in 0.2 mi ENE 12.7 mph 20.7 mph 0.04 in Fog , Snow Heavy Snow
8:04 AM 21.2 °F 7.8 °F 19.4 °F 93% 30.06 in 0.2 mi ENE 15.0 mph - 0.03 in Fog , Snow Heavy Snow
8:23 AM 21.2 °F 9.5 °F 19.4 °F 93% 30.05 in 0.2 mi ENE 11.5 mph 19.6 mph 0.09 in Fog , Snow Heavy Snow
8:54 AM 21.9 °F 7.8 °F 19.0 °F 89% 30.08 in 0.2 mi East 17.3 mph 23.0 mph 0.19 in Fog , Snow Heavy Snow
9:13 AM 21.2 °F 6.0 °F 19.4 °F 93% 30.00 in 0.2 mi ENE 19.6 mph 27.6 mph 0.06 in Fog , Snow , Thunderstorm Heavy Snow
9:27 AM 21.2 °F 6.8 °F 17.6 °F 86% 29.99 in 0.2 mi ENE 17.3 mph 27.6 mph 0.08 in Fog , Snow Heavy Snow
9:54 AM 21.9 °F 7.3 °F 18.0 °F 85% 29.97 in 0.2 mi ENE 18.4 mph 28.8 mph 0.12 in Fog , Snow Heavy Snow
10:28 AM 21.2 °F 3.9 °F 17.6 °F 86% 29.90 in 0.2 mi East 26.5 mph 33.4 mph 0.03 in Fog , Snow Heavy Snow
10:54 AM 23.0 °F 8.3 °F 19.0 °F 85% 29.93 in 0.2 mi East 19.6 mph 33.4 mph 0.05 in Fog , Snow Heavy Snow
11:46 AM 23.0 °F 9.6 °F 19.4 °F 86% 29.91 in 0.2 mi East 16.1 mph 25.3 mph 0.02 in Fog , Snow Snow
11:54 AM 23.0 °F 10.1 °F 19.0 °F 85% 29.93 in 0.5 mi East 15.0 mph 25.3 mph 0.02 in Fog , Snow Snow
12:17 PM 24.8 °F 10.3 °F 19.4 °F 80% 29.87 in 0.8 mi East 20.7 mph 26.5 mph 0.00 in Snow Light Snow
12:34 PM 24.8 °F 11.1 °F 19.4 °F 80% 29.86 in 1.2 mi East 18.4 mph 31.1 mph 0.00 in Snow Light Snow
12:54 PM 25.0 °F 12.6 °F 19.9 °F 81% 29.87 in 1.0 mi East 15.0 mph 25.3 mph 0.00 in Snow Light Snow
1:23 PM 24.8 °F 11.5 °F 19.4 °F 80% 29.83 in 0.8 mi East 17.3 mph 31.1 mph 0.00 in Snow Light Snow
1:34 PM 24.8 °F 12.9 °F 19.4 °F 80% 29.81 in 1.2 mi East 13.8 mph 23.0 mph 0.00 in Snow Light Snow
1:45 PM 24.8 °F 13.4 °F 19.4 °F 80% 29.82 in 3.0 mi East 12.7 mph 27.6 mph 0.00 in Snow Light Snow
1:54 PM 25.0 °F 12.2 °F 19.9 °F 81% 29.84 in 3.0 mi East 16.1 mph 27.6 mph 0.00 in   Haze
2:33 PM 26.6 °F 15.2 °F 21.2 °F 80% 29.79 in 2.5 mi East 13.8 mph 19.6 mph N/A   Haze
2:54 PM 26.1 °F 16.2 °F 21.9 °F 84% 29.83 in 2.0 mi East 10.4 mph - N/A   Overcast
3:03 PM 26.6 °F 14.7 °F 21.2 °F 80% 29.79 in 1.5 mi East 15.0 mph 20.7 mph 0.00 in Rain Light Freezing Rain
3:28 PM 26.6 °F 16.2 °F 21.2 °F 80% 29.78 in 1.8 mi East 11.5 mph 21.9 mph 0.00 in Rain Light Freezing Rain
3:54 PM 26.1 °F 15.6 °F 21.9 °F 84% 29.81 in 1.5 mi East 11.5 mph - 0.00 in Rain Light Freezing Rain
4:37 PM 26.6 °F 16.2 °F 23.0 °F 86% 29.77 in 1.8 mi ENE 11.5 mph - 0.00 in Rain Light Freezing Rain
4:39 PM 26.6 °F 16.8 °F 23.0 °F 86% 29.77 in 1.8 mi East 10.4 mph - 0.00 in   Light Freezing Drizzle
4:54 PM 26.1 °F 16.2 °F 23.0 °F 88% 29.81 in 1.5 mi East 10.4 mph - 0.00 in Snow Light Snow
5:06 PM 26.6 °F 16.8 °F 23.0 °F 86% 29.77 in 0.5 mi East 10.4 mph - 0.00 in Fog , Snow Snow
5:54 PM 26.1 °F 17.6 °F 23.0 °F 88% 29.81 in 0.5 mi ENE 8.1 mph - 0.00 in Fog , Snow Light Snow
6:03 PM 26.6 °F 18.2 °F 21.2 °F 80% 29.79 in 0.8 mi ENE 8.1 mph - 0.00 in Snow Light Snow
6:11 PM 26.6 °F 18.2 °F 21.2 °F 80% 29.79 in 1.5 mi ENE 8.1 mph - 0.00 in Snow Light Snow
6:18 PM 26.6 °F 18.2 °F 21.2 °F 80% 29.79 in 3.0 mi ENE 8.1 mph - 0.00 in   Overcast
6:41 PM 24.8 °F 16.1 °F 21.2 °F 86% 29.78 in 3.0 mi ENE 8.1 mph - 0.00 in   Overcast
6:54 PM 25.0 °F 16.3 °F 21.9 °F 88% 29.81 in 4.0 mi ENE 8.1 mph - 0.00 in   Overcast
7:09 PM 24.8 °F 15.3 °F 21.2 °F 86% 29.78 in 1.8 mi ENE 9.2 mph - 0.01 in Snow Light Snow
7:17 PM 24.8 °F 16.1 °F 21.2 °F 86% 29.78 in 1.0 mi ENE 8.1 mph - 0.01 in Snow Light Snow
7:24 PM 24.8 °F 16.9 °F 21.2 °F 86% 29.78 in 1.2 mi ENE 6.9 mph - 0.01 in Snow Light Snow
7:46 PM 24.8 °F 16.1 °F 21.2 °F 86% 29.78 in 0.8 mi ENE 8.1 mph - 0.01 in Snow Light Snow
7:54 PM 25.0 °F 18.1 °F 21.9 °F 88% 29.81 in 0.8 mi ENE 5.8 mph - 0.01 in Snow Light Snow
8:01 PM 24.8 °F 16.9 °F 21.2 °F 86% 29.79 in 2.0 mi NE 6.9 mph - 0.00 in Snow Light Snow
8:04 PM 24.8 °F 17.9 °F 21.2 °F 86% 29.79 in 3.0 mi NE 5.8 mph - 0.00 in Snow Light Snow
8:14 PM 24.8 °F 17.9 °F 21.2 °F 86% 29.79 in 5.0 mi NE 5.8 mph - 0.00 in   Overcast
8:43 PM 24.8 °F 17.9 °F 21.2 °F 86% 29.78 in 9.0 mi ENE 5.8 mph - 0.00 in   Overcast
8:54 PM 25.0 °F 17.1 °F 21.9 °F 88% 29.81 in 7.0 mi NE 6.9 mph - 0.00 in   Overcast
9:21 PM 24.8 °F 16.9 °F 21.2 °F 86% 29.77 in 6.0 mi NE 6.9 mph - 0.00 in   Overcast
9:40 PM 26.6 °F 19.1 °F 21.2 °F 80% 29.77 in 7.0 mi NE 6.9 mph - 0.00 in   Overcast
9:54 PM 26.1 °F 19.4 °F 21.9 °F 84% 29.80 in 7.0 mi NE 5.8 mph - 0.00 in   Overcast
10:26 PM 26.6 °F 20.0 °F 21.2 °F 80% 29.77 in 1.8 mi ENE 5.8 mph - 0.00 in Snow Light Snow
10:54 PM 26.1 °F 21.9 °F 23.0 °F 88% 29.80 in 1.5 mi NE 3.5 mph - 0.00 in Snow Light Snow
11:01 PM 26.6 °F - 23.0 °F 86% 29.78 in 3.0 mi Calm Calm - 0.00 in Snow Light Snow
11:54 PM 26.1 °F - 23.0 °F 88% 29.81 in 6.0 mi Calm Calm - 0.00 in   Overcast